Iowa Falls, IA

11:38 AM CST on January 19, 2018 (GMT -0600)
Iowa Falls Municipal

Weather History for KIFA - March, 2014

Change the Weather History Date:

Saturday, March 8, 2014

  Actual Average Record
Temperature  
Mean Temperature 20 °F -  
Max Temperature 30 °F 42 °F 75 °F (1977)
Min Temperature 11 °F 21 °F -2 °F (1969)
Degree Days  
Heating Degree Days 44    
Moisture  
Dew Point 19 °F    
Average Humidity 81    
Maximum Humidity 91    
Minimum Humidity 71    
Precipitation  
Precipitation 0.00 in - - ()
Sea Level Pressure  
Sea Level Pressure 30.24 in    
Wind  
Wind Speed 12 mph (NW)    
Max Wind Speed 17 mph    
Max Gust Speed 23 mph    
Visibility 10 miles    
Events      
Averages and records for this station are not official NWS values.
T = Trace of Precipitation, MM = Missing Value Source: NWS Daily Summary

Daily Weather History Graph

Daily Weather History Graph

Search for Another Location

Airport or City:

Trip Planner

Search our weather history database for the weather conditions in past years. The results will help you decide how hot, cold, wet, or windy it might be!

Date:

Astronomy

Mar. 08, 2014 Rise Set
Actual Time 6:36 AM CST 6:11 PM CST
Civil Twilight 6:08 AM CST 6:39 PM CST
Nautical Twilight 5:36 AM CST 7:12 PM CST
Astronomical Twilight 5:03 AM CST 7:44 PM CST
Moon 11:10 AM CST (3/8) 1:17 AM CST (3/8)
Length of Visible Light 12h 30m
Length of Day
11h 34m
First Quarter, 52% of the Moon is Illuminated
Mar 8
First Quarter
Mar 16
Full
Mar 23
Last Quarter
Mar 30
New
Apr 7
First Quarter

Hourly Weather History & Observations

Time (CST) Temp. Windchill Dew Point Humidity Pressure Visibility Wind Dir Wind Speed Gust Speed Precip Events Conditions
12:15 AM 25.3 °F 12.2 °F 21.2 °F 84% 30.12 in 10.0 mi NNW 17.3 mph - N/A   Overcast
12:35 AM 25.2 °F 12.9 °F 20.8 °F 84% 30.12 in 10.0 mi NNW 15.0 mph - N/A   Overcast
12:55 AM 24.8 °F 12.4 °F 20.8 °F 85% 30.12 in 10.0 mi NNW 15.0 mph - N/A   Overcast
1:15 AM 24.8 °F 12.9 °F 20.8 °F 85% 30.13 in 10.0 mi NNW 13.8 mph - N/A   Overcast
1:35 AM 24.8 °F 11.5 °F 20.8 °F 85% 30.14 in 10.0 mi NNW 17.3 mph - N/A   Overcast
1:55 AM 24.8 °F 11.9 °F 20.8 °F 85% 30.14 in 10.0 mi NNW 16.1 mph - N/A   Overcast
2:15 AM 24.8 °F 11.9 °F 21.2 °F 86% 30.14 in 10.0 mi NNW 16.1 mph 23.0 mph N/A   Overcast
2:35 AM 25.2 °F 12.0 °F 21.2 °F 85% 30.15 in 10.0 mi NNW 17.3 mph - N/A   Overcast
2:55 AM 25.2 °F 12.9 °F 21.2 °F 85% 30.15 in 10.0 mi North 15.0 mph - N/A   Overcast
3:15 AM 25.3 °F 13.6 °F 21.6 °F 86% 30.14 in 10.0 mi North 13.8 mph - N/A   Overcast
3:35 AM 25.5 °F 12.4 °F 21.7 °F 86% 30.14 in 10.0 mi North 17.3 mph - N/A   Overcast
3:55 AM 25.7 °F 14.6 °F 21.7 °F 85% 30.14 in 10.0 mi North 12.7 mph 19.6 mph N/A   Overcast
4:15 AM 25.7 °F 14.6 °F 21.6 °F 84% 30.15 in 10.0 mi North 12.7 mph 19.6 mph N/A   Overcast
4:35 AM 25.7 °F 14.0 °F 21.2 °F 83% 30.16 in 10.0 mi North 13.8 mph 19.6 mph N/A   Overcast
4:55 AM 25.5 °F 13.8 °F 21.2 °F 84% 30.17 in 10.0 mi NNW 13.8 mph - N/A   Overcast
5:15 AM 24.8 °F 13.4 °F 20.3 °F 83% 30.19 in 10.0 mi NNW 12.7 mph - N/A   Overcast
5:35 AM 24.6 °F 13.2 °F 20.1 °F 83% 30.19 in 10.0 mi NNW 12.7 mph - N/A   Overcast
5:55 AM 24.4 °F 13.0 °F 20.1 °F 84% 30.20 in 10.0 mi NNW 12.7 mph - N/A   Overcast
6:15 AM 24.1 °F 12.5 °F 19.8 °F 84% 30.21 in 10.0 mi NNW 12.7 mph 18.4 mph N/A   Overcast
6:35 AM 23.7 °F 12.1 °F 19.4 °F 84% 30.22 in 10.0 mi NNW 12.7 mph - N/A   Overcast
6:55 AM 23.4 °F 11.6 °F 19.2 °F 84% 30.22 in 10.0 mi NNW 12.7 mph - N/A   Overcast
7:15 AM 23.0 °F 11.1 °F 18.9 °F 84% 30.23 in 10.0 mi NNW 12.7 mph - N/A   Overcast
7:35 AM 23.0 °F 12.4 °F 18.5 °F 83% 30.24 in 10.0 mi NNW 10.4 mph - N/A   Overcast
7:55 AM 23.0 °F 10.6 °F 18.5 °F 83% 30.24 in 10.0 mi North 13.8 mph - N/A   Overcast
8:15 AM 23.0 °F 11.7 °F 18.3 °F 82% 30.24 in 10.0 mi NNW 11.5 mph - N/A   Overcast
8:35 AM 23.0 °F 11.7 °F 18.1 °F 82% 30.24 in 10.0 mi NNW 11.5 mph - N/A   Overcast
8:55 AM 23.2 °F 12.0 °F 18.0 °F 80% 30.25 in 10.0 mi NNW 11.5 mph - N/A   Overcast
9:15 AM 22.8 °F 11.5 °F 17.4 °F 80% 30.27 in 10.0 mi NNW 11.5 mph - N/A   Overcast
9:35 AM 22.5 °F 11.7 °F 17.1 °F 80% 30.28 in 10.0 mi NNW 10.4 mph - N/A   Mostly Cloudy
9:55 AM 23.5 °F 13.0 °F 17.4 °F 77% 30.28 in 10.0 mi NNW 10.4 mph - N/A   Scattered Clouds
10:15 AM 23.9 °F 12.9 °F 17.6 °F 77% 30.29 in 10.0 mi NNW 11.5 mph - N/A   Clear
10:35 AM 24.3 °F 13.3 °F 18.1 °F 77% 30.29 in 10.0 mi NNW 11.5 mph - N/A   Clear
10:55 AM 25.2 °F 15.1 °F 19.0 °F 78% 30.29 in 10.0 mi NNW 10.4 mph - N/A   Clear
11:15 AM 26.4 °F 16.6 °F 19.6 °F 75% 30.30 in 10.0 mi North 10.4 mph - N/A   Clear
11:35 AM 27.1 °F 18.9 °F 20.3 °F 75% 30.29 in 10.0 mi North 8.1 mph - N/A   Clear
11:55 AM 27.9 °F 20.6 °F 21.0 °F 75% 30.29 in 10.0 mi North 6.9 mph - N/A   Clear
12:15 PM 28.4 °F 19.1 °F 21.2 °F 74% 30.30 in 10.0 mi NNW 10.4 mph - N/A   Clear
12:35 PM 28.9 °F 19.2 °F 21.9 °F 75% 30.29 in 10.0 mi NNW 11.5 mph - N/A   Clear
12:55 PM 29.1 °F 20.6 °F 21.7 °F 74% 30.29 in 10.0 mi NNW 9.2 mph - N/A   Clear
1:15 PM 29.3 °F 20.8 °F 22.1 °F 75% 30.28 in 10.0 mi NW 9.2 mph - N/A   Clear
1:35 PM 29.3 °F 22.3 °F 21.9 °F 74% 30.27 in 10.0 mi NW 6.9 mph - N/A   Scattered Clouds
1:55 PM 29.8 °F 20.9 °F 22.8 °F 75% 30.27 in 10.0 mi WNW 10.4 mph - N/A   Scattered Clouds
2:15 PM 30.0 °F 21.1 °F 23.2 °F 76% 30.27 in 10.0 mi NW 10.4 mph - N/A   Scattered Clouds
2:35 PM 29.3 °F 20.2 °F 22.1 °F 75% 30.27 in 10.0 mi NNW 10.4 mph - N/A   Scattered Clouds
2:55 PM 30.2 °F 20.8 °F 22.6 °F 73% 30.27 in 10.0 mi NNW 11.5 mph - N/A   Scattered Clouds
3:15 PM 30.2 °F 20.8 °F 22.6 °F 73% 30.28 in 10.0 mi NNW 11.5 mph - N/A   Mostly Cloudy
3:35 PM 29.8 °F 20.9 °F 21.9 °F 72% 30.27 in 10.0 mi NW 10.4 mph - N/A   Scattered Clouds
3:55 PM 29.8 °F 20.9 °F 21.4 °F 71% 30.27 in 10.0 mi NW 10.4 mph - N/A   Clear
4:15 PM 29.3 °F 20.2 °F 21.2 °F 72% 30.27 in 10.0 mi NW 10.4 mph - N/A   Clear
4:35 PM 28.8 °F 19.5 °F 21.0 °F 73% 30.27 in 10.0 mi NW 10.4 mph - N/A   Clear
4:55 PM 28.2 °F 18.9 °F 20.7 °F 73% 30.28 in 10.0 mi NW 10.4 mph - N/A   Clear
5:15 PM 27.5 °F 18.0 °F 20.3 °F 74% 30.28 in 10.0 mi NNW 10.4 mph - N/A   Clear
5:35 PM 26.6 °F 16.8 °F 20.7 °F 78% 30.29 in 10.0 mi NW 10.4 mph - N/A   Clear
5:55 PM 25.3 °F 16.7 °F 19.9 °F 80% 30.29 in 10.0 mi NW 8.1 mph - N/A   Clear
6:15 PM 23.9 °F 14.2 °F 19.2 °F 82% 30.29 in 10.0 mi NW 9.2 mph - N/A   Clear
6:35 PM 22.3 °F 13.9 °F 18.5 °F 85% 30.29 in 10.0 mi NW 6.9 mph - N/A   Clear
6:55 PM 21.2 °F 10.9 °F 17.4 °F 85% 30.29 in 10.0 mi NW 9.2 mph - N/A   Clear
7:15 PM 20.1 °F 10.3 °F 16.5 °F 86% 30.30 in 10.0 mi WNW 8.1 mph - N/A   Clear
7:35 PM 19.4 °F 9.5 °F 15.8 °F 86% 30.30 in 10.0 mi WNW 8.1 mph - N/A   Clear
7:55 PM 19.0 °F 10.0 °F 15.1 °F 85% 30.30 in 10.0 mi WNW 6.9 mph - N/A   Clear
8:15 PM 16.7 °F 9.6 °F 13.1 °F 86% 30.29 in 10.0 mi West 4.6 mph - N/A   Clear
8:35 PM 15.8 °F 8.6 °F 12.6 °F 87% 30.29 in 10.0 mi WNW 4.6 mph - N/A   Clear
8:55 PM 16.5 °F - 13.5 °F 88% 30.29 in 10.0 mi Calm Calm - N/A   Clear
9:15 PM 15.8 °F - 12.9 °F 88% 30.28 in 10.0 mi Calm Calm - N/A   Clear
9:35 PM 15.4 °F 8.1 °F 11.8 °F 86% 30.28 in 10.0 mi WSW 4.6 mph - N/A   Clear
9:55 PM 14.5 °F 5.7 °F 11.7 °F 88% 30.29 in 10.0 mi WSW 5.8 mph - N/A   Clear
10:15 PM 14.9 °F 6.1 °F 11.8 °F 88% 30.29 in 10.0 mi SW 5.8 mph - N/A   Clear
10:35 PM 14.5 °F 7.1 °F 11.8 °F 89% 30.29 in 10.0 mi WSW 4.6 mph - N/A   Clear
10:55 PM 12.0 °F 4.1 °F 9.3 °F 89% 30.28 in 10.0 mi West 4.6 mph - N/A   Clear
11:15 PM 11.1 °F 1.7 °F 8.4 °F 89% 30.28 in 10.0 mi WSW 5.8 mph - N/A   Clear
11:35 PM 12.9 °F 5.2 °F 10.8 °F 91% 30.27 in 10.0 mi SW 4.6 mph - N/A   Clear
11:55 PM 15.3 °F 5.4 °F 12.6 °F 89% 30.26 in 10.0 mi SW 6.9 mph - N/A   Clear